TAM2742 SPJC-SAEZ

Flight info

Callsign TAM2742
Flight time N/A
Altitude 39000
Route SCO UL550 ROS UT672 MULTA UW24 SNT SNT7X
Aircraft B772/H-SDE2E3FGHIJ5LORVWXY/LB1D1

Departure

Time N/A
Airport Jorge Chávez International Airport (SPJC)

Arrival

Time 2026-05-04 20:40
Airport Ezeiza International Airport - Ministro Pistarini (SAEZ)
Time Latitude Longitude Altitude Speed Heading
2026-05-04 19:53 -30.89694 -62.29478 41000 ft 480 kts 148°
2026-05-04 19:53 -30.95326 -62.25371 41000 ft 480 kts 148°
2026-05-04 19:54 -31.00996 -62.21236 41000 ft 480 kts 148°
2026-05-04 19:54 -31.06674 -62.17101 41000 ft 480 kts 148°
2026-05-04 19:55 -31.12288 -62.12999 41000 ft 480 kts 148°
2026-05-04 19:55 -31.17981 -62.08834 41000 ft 480 kts 148°
2026-05-04 19:56 -31.23601 -62.04685 41000 ft 480 kts 147°
2026-05-04 19:56 -31.29237 -62.00493 41000 ft 480 kts 147°
2026-05-04 19:57 -31.34884 -61.96286 41000 ft 480 kts 147°
2026-05-04 19:57 -31.40523 -61.92079 41000 ft 480 kts 147°
2026-05-04 19:58 -31.46138 -61.87885 41000 ft 480 kts 147°
2026-05-04 19:58 -31.51777 -61.83688 41000 ft 480 kts 147°
2026-05-04 19:59 -31.57428 -61.79477 41000 ft 480 kts 147°
2026-05-04 19:59 -31.63041 -61.75286 41000 ft 480 kts 147°
2026-05-04 20:00 -31.68680 -61.71070 41000 ft 480 kts 147°
2026-05-04 20:00 -31.74326 -61.66823 41000 ft 480 kts 147°
2026-05-04 20:01 -31.79005 -61.63297 41000 ft 480 kts 147°
2026-05-04 20:01 -31.84637 -61.59049 41000 ft 481 kts 147°
2026-05-04 20:02 -31.90278 -61.54794 41000 ft 481 kts 147°
2026-05-04 20:02 -31.95872 -61.50566 41000 ft 480 kts 147°
2026-05-04 20:03 -32.01505 -61.46296 41000 ft 480 kts 147°
2026-05-04 20:03 -32.07126 -61.42029 41000 ft 480 kts 147°
2026-05-04 20:04 -32.12755 -61.37749 41000 ft 480 kts 147°
2026-05-04 20:04 -32.18333 -61.33505 41000 ft 480 kts 147°
2026-05-04 20:05 -32.23976 -61.29239 41000 ft 480 kts 147°
2026-05-04 20:05 -32.29605 -61.24960 41000 ft 480 kts 147°
2026-05-04 20:06 -32.35226 -61.20673 41000 ft 480 kts 147°
2026-05-04 20:06 -32.40817 -61.16400 41000 ft 480 kts 147°
2026-05-04 20:07 -32.46441 -61.12096 41000 ft 480 kts 147°
2026-05-04 20:07 -32.52057 -61.07791 41000 ft 480 kts 147°
2026-05-04 20:08 -32.57627 -61.03514 41000 ft 480 kts 147°
2026-05-04 20:08 -32.63233 -60.99204 41000 ft 480 kts 147°
2026-05-04 20:09 -32.68869 -60.94888 41000 ft 480 kts 147°
2026-05-04 20:09 -32.74442 -60.90585 41000 ft 480 kts 147°
2026-05-04 20:10 -32.80053 -60.86242 41000 ft 480 kts 147°
2026-05-04 20:10 -32.85659 -60.81897 41000 ft 480 kts 147°
2026-05-04 20:11 -32.91275 -60.77554 40999 ft 480 kts 147°
2026-05-04 20:11 -32.96998 -60.73530 41000 ft 480 kts 150°
2026-05-04 20:12 -33.02832 -60.69589 41000 ft 480 kts 150°
2026-05-04 20:12 -33.08606 -60.65620 41000 ft 480 kts 150°
2026-05-04 20:13 -33.14401 -60.61608 41000 ft 480 kts 150°
2026-05-04 20:13 -33.20173 -60.57600 41000 ft 480 kts 150°
2026-05-04 20:14 -33.25949 -60.53616 41000 ft 481 kts 150°
2026-05-04 20:14 -33.31747 -60.49595 40959 ft 481 kts 150°
2026-05-04 20:14 -33.34636 -60.47585 40581 ft 478 kts 150°
2026-05-04 20:15 -33.37498 -60.45592 39947 ft 475 kts 149°
2026-05-04 20:15 -33.40324 -60.43622 39234 ft 476 kts 149°
2026-05-04 20:15 -33.43183 -60.41627 38501 ft 476 kts 149°
2026-05-04 20:15 -33.46048 -60.39626 37747 ft 476 kts 149°
2026-05-04 20:16 -33.48920 -60.37619 36983 ft 477 kts 149°
2026-05-04 20:16 -33.51793 -60.35610 36210 ft 477 kts 149°
2026-05-04 20:16 -33.54627 -60.33625 35484 ft 476 kts 149°
2026-05-04 20:16 -33.57490 -60.31627 34755 ft 476 kts 150°
2026-05-04 20:17 -33.60347 -60.29638 34018 ft 475 kts 149°
2026-05-04 20:17 -33.63211 -60.27630 33258 ft 475 kts 149°
2026-05-04 20:17 -33.66071 -60.25620 32488 ft 475 kts 149°
2026-05-04 20:17 -33.68929 -60.23608 31706 ft 475 kts 149°
2026-05-04 20:18 -33.71780 -60.21598 30927 ft 475 kts 149°
2026-05-04 20:18 -33.74626 -60.19590 30280 ft 471 kts 149°
2026-05-04 20:18 -33.77399 -60.17633 29637 ft 467 kts 149°
2026-05-04 20:18 -33.80187 -60.15644 28949 ft 463 kts 148°
2026-05-04 20:19 -33.82803 -60.13407 28292 ft 458 kts 141°
2026-05-04 20:19 -33.85210 -60.10903 27603 ft 455 kts 137°
2026-05-04 20:19 -33.87499 -60.08294 26962 ft 450 kts 135°
2026-05-04 20:19 -33.89686 -60.05618 26301 ft 447 kts 134°
2026-05-04 20:20 -33.91774 -60.02915 25670 ft 442 kts 132°
2026-05-04 20:20 -33.93821 -60.00169 25026 ft 439 kts 131°
2026-05-04 20:20 -33.95821 -59.97458 24397 ft 435 kts 131°
2026-05-04 20:20 -33.97834 -59.94747 23765 ft 431 kts 132°
2026-05-04 20:21 -33.99829 -59.92075 23133 ft 427 kts 132°
2026-05-04 20:21 -34.01812 -59.89425 22517 ft 423 kts 132°
2026-05-04 20:21 -34.05713 -59.84224 21281 ft 416 kts 132°
2026-05-04 20:22 -34.07650 -59.81647 20668 ft 413 kts 132°
2026-05-04 20:22 -34.09592 -59.79094 20054 ft 410 kts 132°
2026-05-04 20:22 -34.11511 -59.76563 19447 ft 406 kts 132°
2026-05-04 20:22 -34.13387 -59.74082 18846 ft 403 kts 132°
2026-05-04 20:23 -34.15268 -59.71586 18245 ft 399 kts 132°
2026-05-04 20:23 -34.17135 -59.69104 17639 ft 396 kts 132°
2026-05-04 20:23 -34.18983 -59.66644 17043 ft 393 kts 132°
2026-05-04 20:23 -34.20810 -59.64209 16443 ft 390 kts 132°
2026-05-04 20:24 -34.22628 -59.61784 15851 ft 387 kts 132°
2026-05-04 20:24 -34.24426 -59.59383 15257 ft 384 kts 132°
2026-05-04 20:24 -34.26188 -59.57029 14677 ft 380 kts 132°
2026-05-04 20:24 -34.27956 -59.54665 14086 ft 378 kts 132°
2026-05-04 20:25 -34.29711 -59.52317 13506 ft 375 kts 132°
2026-05-04 20:25 -34.31454 -59.49983 12919 ft 372 kts 132°
2026-05-04 20:25 -34.33180 -59.47670 12348 ft 369 kts 132°
2026-05-04 20:25 -34.34895 -59.45370 11783 ft 366 kts 132°
2026-05-04 20:26 -34.36575 -59.43115 11551 ft 354 kts 132°
2026-05-04 20:26 -34.38192 -59.40945 11391 ft 340 kts 132°
2026-05-04 20:26 -34.39731 -59.38878 11224 ft 329 kts 132°
2026-05-04 20:26 -34.41238 -59.36851 11055 ft 318 kts 132°
2026-05-04 20:27 -34.42698 -59.34888 10887 ft 309 kts 132°
2026-05-04 20:27 -34.44112 -59.32985 10728 ft 300 kts 132°
2026-05-04 20:27 -34.45493 -59.31125 10569 ft 292 kts 132°
2026-05-04 20:27 -34.46830 -59.29324 10415 ft 284 kts 132°
2026-05-04 20:28 -34.48133 -59.27568 10267 ft 276 kts 132°
2026-05-04 20:28 -34.49396 -59.25865 10123 ft 269 kts 132°
2026-05-04 20:28 -34.50635 -59.24193 9965 ft 266 kts 132°
2026-05-04 20:28 -34.51894 -59.22493 9659 ft 271 kts 132°
2026-05-04 20:29 -34.53155 -59.20790 9364 ft 271 kts 132°
2026-05-04 20:29 -34.54416 -59.19089 9066 ft 270 kts 132°
2026-05-04 20:29 -34.55678 -59.17404 8769 ft 270 kts 132°
2026-05-04 20:29 -34.56921 -59.15737 8475 ft 269 kts 132°
2026-05-04 20:30 -34.58174 -59.14047 8178 ft 269 kts 132°
2026-05-04 20:30 -34.59425 -59.12356 7882 ft 268 kts 132°
2026-05-04 20:30 -34.60672 -59.10665 7585 ft 268 kts 131°
2026-05-04 20:30 -34.61897 -59.09003 7294 ft 267 kts 131°
2026-05-04 20:31 -34.63131 -59.07325 7001 ft 266 kts 131°
2026-05-04 20:31 -34.64367 -59.05643 6706 ft 266 kts 131°
2026-05-04 20:31 -34.65602 -59.03963 6413 ft 265 kts 131°
2026-05-04 20:31 -34.66829 -59.02292 6121 ft 264 kts 131°
2026-05-04 20:32 -34.68038 -59.00645 5834 ft 264 kts 131°
2026-05-04 20:32 -34.69258 -58.98982 5544 ft 263 kts 131°
2026-05-04 20:32 -34.70473 -58.97326 5256 ft 262 kts 131°
2026-05-04 20:32 -34.71680 -58.95681 4970 ft 261 kts 131°
2026-05-04 20:33 -34.72890 -58.94031 4796 ft 256 kts 131°
2026-05-04 20:33 -34.74060 -58.92437 4658 ft 249 kts 131°
2026-05-04 20:33 -34.75173 -58.90884 4524 ft 242 kts 129°
2026-05-04 20:33 -34.76057 -58.89162 4330 ft 240 kts 116°
2026-05-04 20:34 -34.76477 -58.87693 4145 ft 238 kts 105°
2026-05-04 20:34 -34.76796 -58.85730 3949 ft 235 kts 100°
2026-05-04 20:34 -34.77053 -58.83775 3741 ft 233 kts 99°
2026-05-04 20:34 -34.77322 -58.81841 3540 ft 231 kts 100°
2026-05-04 20:35 -34.77603 -58.79962 3470 ft 219 kts 100°
2026-05-04 20:35 -34.77850 -58.78205 3369 ft 209 kts 100°
2026-05-04 20:35 -34.78130 -58.76483 3261 ft 201 kts 101°
2026-05-04 20:35 -34.78410 -58.74862 3187 ft 196 kts 102°
2026-05-04 20:36 -34.78696 -58.73250 2993 ft 196 kts 102°
2026-05-04 20:36 -34.78980 -58.71657 2741 ft 191 kts 102°
2026-05-04 20:36 -34.79259 -58.70101 2472 ft 181 kts 102°
2026-05-04 20:36 -34.79514 -58.68679 2233 ft 167 kts 102°
2026-05-04 20:37 -34.79756 -58.67332 2013 ft 159 kts 102°
2026-05-04 20:37 -34.79987 -58.66039 1806 ft 155 kts 102°
2026-05-04 20:37 -34.80214 -58.64778 1604 ft 151 kts 102°
2026-05-04 20:37 -34.80418 -58.63640 1421 ft 145 kts 102°
2026-05-04 20:38 -34.80626 -58.62479 1244 ft 136 kts 102°
2026-05-04 20:38 -34.80826 -58.61365 1063 ft 135 kts 102°
2026-05-04 20:38 -34.81028 -58.60238 886 ft 136 kts 102°
2026-05-04 20:38 -34.81229 -58.59124 718 ft 138 kts 102°
2026-05-04 20:39 -34.81439 -58.57967 492 ft 142 kts 102°
2026-05-04 20:39 -34.81645 -58.56797 303 ft 140 kts 102°
2026-05-04 20:39 -34.81848 -58.55645 143 ft 137 kts 102°
2026-05-04 20:39 -34.82031 -58.54666 81 ft 116 kts 102°
2026-05-04 20:40 -34.82153 -58.53992 80 ft 53 kts 102°
2026-05-04 20:40 -34.82223 -58.53604 80 ft 48 kts 102°